Location: Newark
(14.1000°N, 87.2167°W)
Time: 05:10:23
(UTC+00:00)

Envisat - Visible Passes

Search period start: 23 August 2019 00:00
Search period end: 02 September 2019 00:00
Orbit: 764 x 766 km, 98.1° (Epoch: 22 August)

Date Brightness Start Highest point End Pass type
(mag) Time Alt. Az. Time Alt. Az. Time Alt. Az.
23 Aug 6.0 01:35:43 10° WSW 01:37:43 12° W 01:39:44 10° WNW visible
24 Aug 4.7 00:56:22 10° SSW 01:00:56 34° W 01:05:31 10° NW visible
25 Aug 3.0 00:19:10 10° SSE 00:24:14 84° ENE 00:29:18 10° N visible
26 Aug 5.8 01:23:15 10° SW 01:26:27 17° W 01:29:41 10° WNW visible
27 Aug 4.1 00:44:51 10° S 00:49:41 47° W 00:54:33 10° NNW visible
29 Aug 5.4 01:11:16 10° SSW 01:15:12 23° W 01:19:08 10° NW visible
30 Aug 3.5 00:33:27 10° S 00:38:27 64° WSW 00:43:29 10° NNW visible
31 Aug 6.1 01:39:38 10° WSW 01:40:44 11° W 01:41:50 10° W visible
01 Sep 4.9 00:59:31 10° SSW 01:03:57 31° W 01:08:23 10° NW visible
